Flag for China Weather past 2 weeks in Nanning, Guangxi, China

Now
46 °F

Fog.


Feels Like: 44 °F
Forecast: 49 / 61 °F
Wind: 6 mph from Northeast

Location: Nanning Airport

Current Time: Feb 1, 2015 at 4:16:36 PM

Latest Report: Feb 1, 2015 at 3:00 PM


Visibility: 3 mi

Pressure: 30.30 "Hg

Humidity: 93%

Dew point: 45 °F

Location of NanningLocation

Historic Weather in Nanning — Graph

°F

Nanning temperature yesterday

Maximum temperature yesterday: 46 °F (at 12:00 AM)
Minimum temperature yesterday: 45 °F (at 1:00 AM)
Average temperature yesterday: 45 °F

Past Weeks' High & Low Weather Summary

 TemperatureHumidityPressure
High73 °F (Jan 22, 2:00 PM)100% (Jan 20, 5:00 AM)30.42 "Hg (Jan 20, 5:00 AM)
Low45 °F (Jan 31, 1:00 AM)41% (Jan 22, 2:00 PM)29.89 "Hg (Jan 24, 4:00 PM)
Average60 °F82%30.12 "Hg
* Reported Jan 17 3:00 PM — Feb 1 3:00 PM, Nanning, Weather by CustomWeather, © 2014

Note: Actual official high and low records may vary slightly from our data, if they occured in-between our weather recording intervals... More about our weather records

Advertising

Nanning weather history for previous 24 hours

 ConditionsComfort  
Time TempWeatherWind HumidityBarometerVisibility
3:00 PM
Feb 1
46 °FFog.6 mph93%30.30 "Hg3 mi
2:00 PM45 °FFog.6 mph100%30.33 "Hg2 mi
1:00 PM46 °FFog.6 mph93%30.36 "Hg3 mi
12:00 PM45 °FLight rain. Fog.6 mph100%30.39 "Hg1 mi
11:00 AM46 °FLight rain. Fog.6 mph100%30.42 "Hg1 mi
10:00 AM45 °FLight rain. Fog.6 mph100%30.42 "Hg1 mi
9:00 AM45 °FLight rain. Fog.3 mph100%30.39 "Hg1 mi
8:00 AM45 °FLight rain. Fog.6 mph100%30.36 "Hg1 mi
7:00 AM45 °FLight rain. Fog.6 mph100%30.33 "Hg1 mi
6:00 AM45 °FLight rain. Fog.3 mph100%30.33 "Hg1 mi
5:00 AM45 °FLight rain. Fog.3 mph100%30.33 "Hg1 mi
4:00 AM45 °FLight rain. Fog.6 mph100%30.33 "Hg1 mi
3:00 AM45 °FLight rain. Fog.6 mph100%30.33 "Hg2 mi
2:00 AM45 °FLight rain. Fog.3 mph100%30.33 "Hg1 mi
1:00 AM45 °FLight rain. Fog.3 mph100%30.36 "Hg2 mi
12:00 AM45 °FLight rain. Fog.3 mph100%30.36 "Hg2 mi
11:00 PM
Jan 31
45 °FLight rain. Fog.3 mph100%30.36 "Hg1 mi
10:00 PM45 °FLight rain. Fog.6 mph100%30.36 "Hg1 mi
9:00 PM45 °FLight rain. Fog.3 mph100%30.36 "Hg2 mi
8:00 PM45 °FLight rain. Fog.6 mph100%30.33 "Hg2 mi
7:00 PM45 °FLight rain. Fog.6 mph100%30.33 "Hg2 mi
6:00 PM45 °FLight rain. Fog.6 mph100%30.30 "Hg1 mi
5:00 PM45 °FLight rain. Fog.6 mph100%30.30 "Hg2 mi
4:00 PM46 °FLight rain. Fog.6 mph100%30.30 "Hg1 mi
Weather by CustomWeather, © 2014

See weather overviewHow to use our weather pages